Time,TemperatureF,DewpointF,PressureIn,WindDirection,WindDirectionDegrees,WindSpeedMPH,WindSpeedGustMPH,Humidity,HourlyPrecipIn,Conditions,Clouds,dailyrainin,SoftwareType,DateUTC
2013-04-14 00:04:00,62.5,46.0,29.62,South,170,13.0,17.0,55,0.00,,,0.00,weatherlink.com 1.10,2013-04-14 06:04:00,
2013-04-14 00:19:00,62.3,46.0,29.61,SSE,154,5.0,15.0,55,0.00,,,0.00,weatherlink.com 1.10,2013-04-14 06:19:00,
2013-04-14 00:34:00,62.2,46.0,29.61,SSE,147,8.0,15.0,56,0.00,,,0.00,weatherlink.com 1.10,2013-04-14 06:34:00,
2013-04-14 00:49:00,62.2,47.0,29.61,SE,140,7.0,15.0,57,0.00,,,0.00,weatherlink.com 1.10,2013-04-14 06:49:00,
2013-04-14 01:04:00,62.1,47.0,29.61,SSE,162,7.0,14.0,58,0.00,,,0.00,weatherlink.com 1.10,2013-04-14 07:04:00,
2013-04-14 01:19:00,61.8,47.0,29.60,SSE,168,11.0,15.0,59,0.00,,,0.00,weatherlink.com 1.10,2013-04-14 07:19:00,
2013-04-14 01:34:00,61.8,48.0,29.60,South,182,7.0,14.0,60,0.00,,,0.00,weatherlink.com 1.10,2013-04-14 07:34:00,
2013-04-14 01:49:00,61.9,48.0,29.59,SSE,149,9.0,17.0,60,0.00,,,0.00,weatherlink.com 1.10,2013-04-14 07:49:00,
2013-04-14 02:04:00,61.8,48.0,29.59,SSE,159,4.0,12.0,61,0.00,,,0.00,weatherlink.com 1.10,2013-04-14 08:04:00,
2013-04-14 02:19:00,61.8,48.0,29.58,South,172,9.0,14.0,61,0.00,,,0.00,weatherlink.com 1.10,2013-04-14 08:19:00,
2013-04-14 02:34:00,61.6,48.0,29.58,SSE,165,6.0,12.0,62,0.00,,,0.00,weatherlink.com 1.10,2013-04-14 08:34:00,
2013-04-14 02:49:00,61.2,49.0,29.58,SSE,166,6.0,12.0,64,0.00,,,0.00,weatherlink.com 1.10,2013-04-14 08:49:00,
2013-04-14 03:04:00,61.0,49.0,29.58,South,170,3.0,12.0,65,0.00,,,0.00,weatherlink.com 1.10,2013-04-14 09:04:00,
2013-04-14 03:19:00,60.6,49.0,29.57,South,170,7.0,9.0,66,0.00,,,0.00,weatherlink.com 1.10,2013-04-14 09:19:00,
2013-04-14 03:34:00,60.3,50.0,29.57,SSE,163,5.0,11.0,68,0.00,,,0.00,weatherlink.com 1.10,2013-04-14 09:34:00,
2013-04-14 03:49:00,59.9,49.0,29.56,SSE,159,5.0,11.0,68,0.00,,,0.00,weatherlink.com 1.10,2013-04-14 09:49:00,
2013-04-14 04:04:00,59.7,49.0,29.55,SSE,164,6.0,12.0,69,0.00,,,0.00,weatherlink.com 1.10,2013-04-14 10:04:00,
2013-04-14 04:19:00,59.3,50.0,29.54,SSE,158,8.0,9.0,70,0.00,,,0.00,weatherlink.com 1.10,2013-04-14 10:19:00,
2013-04-14 04:34:00,58.7,50.0,29.54,SSE,164,5.0,11.0,72,0.00,,,0.00,weatherlink.com 1.10,2013-04-14 10:34:00,
2013-04-14 04:49:00,57.8,50.0,29.53,SSE,156,5.0,8.0,74,0.00,,,0.00,weatherlink.com 1.10,2013-04-14 10:49:00,
2013-04-14 05:04:00,57.0,50.0,29.53,SSE,168,2.0,9.0,76,0.00,,,0.00,weatherlink.com 1.10,2013-04-14 11:04:00,
2013-04-14 05:19:00,56.5,49.0,29.53,SSE,162,5.0,8.0,77,0.00,,,0.00,weatherlink.com 1.10,2013-04-14 11:19:00,
2013-04-14 05:34:00,56.4,49.0,29.52,SSE,162,7.0,9.0,77,0.00,,,0.00,weatherlink.com 1.10,2013-04-14 11:34:00,
2013-04-14 05:50:00,56.1,49.0,29.52,SSE,167,4.0,8.0,78,0.00,,,0.00,weatherlink.com 1.10,2013-04-14 11:50:00,
2013-04-14 06:05:00,55.7,49.0,29.53,SSE,168,4.0,8.0,79,0.00,,,0.00,weatherlink.com 1.10,2013-04-14 12:05:00,
2013-04-14 06:20:00,55.7,49.0,29.53,SSE,154,2.0,9.0,79,0.00,,,0.00,weatherlink.com 1.10,2013-04-14 12:20:00,
2013-04-14 06:35:00,56.0,50.0,29.53,SE,135,3.0,11.0,79,0.00,,,0.00,weatherlink.com 1.10,2013-04-14 12:35:00,
2013-04-14 06:50:00,56.5,50.0,29.53,SSE,154,4.0,8.0,79,0.00,,,0.00,weatherlink.com 1.10,2013-04-14 12:50:00,
2013-04-14 07:05:00,57.0,50.0,29.52,SE,135,5.0,8.0,78,0.00,,,0.00,weatherlink.com 1.10,2013-04-14 13:05:00,
2013-04-14 07:20:00,57.8,51.0,29.52,SSE,163,6.0,10.0,77,0.00,,,0.00,weatherlink.com 1.10,2013-04-14 13:20:00,
2013-04-14 07:35:00,58.8,52.0,29.52,South,187,12.0,12.0,77,0.00,,,0.00,weatherlink.com 1.10,2013-04-14 13:35:00,
2013-04-14 07:50:00,60.4,52.0,29.52,SSE,167,6.0,10.0,73,0.00,,,0.00,weatherlink.com 1.10,2013-04-14 13:50:00,
2013-04-14 08:05:00,61.9,52.0,29.52,South,189,9.0,13.0,70,0.00,,,0.00,weatherlink.com 1.10,2013-04-14 14:05:00,
2013-04-14 08:20:00,63.5,52.0,29.51,South,189,11.0,14.0,67,0.00,,,0.00,weatherlink.com 1.10,2013-04-14 14:20:00,
2013-04-14 08:35:00,65.1,52.0,29.51,SSW,206,10.0,19.0,63,0.00,,,0.00,weatherlink.com 1.10,2013-04-14 14:35:00,
2013-04-14 08:50:00,66.9,52.0,29.50,SW,224,11.0,17.0,60,0.00,,,0.00,weatherlink.com 1.10,2013-04-14 14:50:00,
2013-04-14 09:05:00,68.6,52.0,29.48,SW,228,22.0,24.0,56,0.00,,,0.00,weatherlink.com 1.10,2013-04-14 15:05:00,
2013-04-14 09:20:00,70.1,52.0,29.48,SW,217,16.0,24.0,53,0.00,,,0.00,weatherlink.com 1.10,2013-04-14 15:20:00,
2013-04-14 09:35:00,71.3,53.0,29.48,SW,235,17.0,25.0,52,0.00,,,0.00,weatherlink.com 1.10,2013-04-14 15:35:00,
2013-04-14 09:50:00,72.4,52.0,29.47,SW,220,8.0,24.0,49,0.00,,,0.00,weatherlink.com 1.10,2013-04-14 15:50:00,
2013-04-14 10:05:00,74.0,52.0,29.47,SW,214,9.0,17.0,47,0.00,,,0.00,weatherlink.com 1.10,2013-04-14 16:05:00,
2013-04-14 10:20:00,75.7,53.0,29.48,SW,226,14.0,20.0,45,0.00,,,0.00,weatherlink.com 1.10,2013-04-14 16:20:00,
2013-04-14 10:35:00,77.5,52.0,29.47,SSW,207,11.0,17.0,41,0.00,,,0.00,weatherlink.com 1.10,2013-04-14 16:35:00,
2013-04-14 10:50:00,79.7,50.0,29.46,WSW,239,7.0,19.0,35,0.00,,,0.00,weatherlink.com 1.10,2013-04-14 16:50:00,
2013-04-14 11:05:00,81.6,45.0,29.46,WSW,247,19.0,23.0,28,0.00,,,0.00,weatherlink.com 1.10,2013-04-14 17:05:00,
2013-04-14 11:20:00,83.3,42.0,29.45,WSW,258,21.0,32.0,23,0.00,,,0.00,weatherlink.com 1.10,2013-04-14 17:20:00,
2013-04-14 11:36:00,83.9,41.0,29.45,WSW,246,14.0,26.0,22,0.00,,,0.00,weatherlink.com 1.10,2013-04-14 17:36:00,
2013-04-14 11:51:00,84.1,41.0,29.45,WSW,241,13.0,25.0,22,0.00,,,0.00,weatherlink.com 1.10,2013-04-14 17:51:00,
2013-04-14 12:06:00,85.2,42.0,29.44,SW,226,7.0,25.0,22,0.00,,,0.00,weatherlink.com 1.10,2013-04-14 18:06:00,
2013-04-14 12:21:00,86.3,39.0,29.43,SW,236,21.0,21.0,19,0.00,,,0.00,weatherlink.com 1.10,2013-04-14 18:21:00,
2013-04-14 13:06:00,87.6,38.0,29.41,WNW,289,7.0,20.0,17,0.00,,,0.00,weatherlink.com 1.10,2013-04-14 19:06:00,
2013-04-14 13:21:00,88.4,37.0,29.41,West,262,15.0,24.0,16,0.00,,,0.00,weatherlink.com 1.10,2013-04-14 19:21:00,
2013-04-14 13:36:00,89.2,37.0,29.41,West,260,12.0,14.0,16,0.00,,,0.00,weatherlink.com 1.10,2013-04-14 19:36:00,
2013-04-14 13:51:00,89.3,38.0,29.40,West,280,9.0,18.0,16,0.00,,,0.00,weatherlink.com 1.10,2013-04-14 19:51:00,
2013-04-14 14:21:00,90.0,35.0,29.39,SSW,212,7.0,18.0,14,0.00,,,0.00,weatherlink.com 1.10,2013-04-14 20:21:00,
2013-04-14 14:36:00,90.3,35.0,29.39,WNW,285,9.0,17.0,14,0.00,,,0.00,weatherlink.com 1.10,2013-04-14 20:36:00,
2013-04-14 14:51:00,90.8,34.0,29.39,West,278,10.0,19.0,13,0.00,,,0.00,weatherlink.com 1.10,2013-04-14 20:51:00,
2013-04-14 15:06:00,90.6,33.0,29.38,WSW,252,4.0,9.0,13,0.00,,,0.00,weatherlink.com 1.10,2013-04-14 21:06:00,
2013-04-14 15:21:00,90.8,34.0,29.38,WNW,294,7.0,13.0,13,0.00,,,0.00,weatherlink.com 1.10,2013-04-14 21:21:00,
2013-04-14 15:36:00,91.0,36.0,29.37,West,275,7.0,14.0,14,0.00,,,0.00,weatherlink.com 1.10,2013-04-14 21:36:00,
2013-04-14 16:06:00,90.0,40.0,29.37,NNE,12,13.0,14.0,17,0.00,,,0.00,weatherlink.com 1.10,2013-04-14 22:06:00,
2013-04-14 16:36:00,89.2,40.0,29.38,NNE,18,7.0,12.0,18,0.00,,,0.00,weatherlink.com 1.10,2013-04-14 22:36:00,
2013-04-14 16:51:00,88.6,43.0,29.37,North,11,9.0,13.0,20,0.00,,,0.00,weatherlink.com 1.10,2013-04-14 22:51:00,
2013-04-14 17:06:00,88.1,44.0,29.38,NNE,32,5.0,10.0,21,0.00,,,0.00,weatherlink.com 1.10,2013-04-14 23:06:00,
2013-04-14 17:21:00,87.9,42.0,29.38,NE,34,4.0,10.0,20,0.00,,,0.00,weatherlink.com 1.10,2013-04-14 23:21:00,
2013-04-14 17:36:00,86.9,44.0,29.38,NE,35,6.0,14.0,22,0.00,,,0.00,weatherlink.com 1.10,2013-04-14 23:36:00,
2013-04-14 17:51:00,86.0,45.0,29.38,NE,47,12.0,14.0,24,0.00,,,0.00,weatherlink.com 1.10,2013-04-14 23:51:00,
2013-04-14 18:06:00,84.8,46.0,29.38,ENE,58,4.0,12.0,26,0.00,,,0.00,weatherlink.com 1.10,2013-04-15 00:06:00,
2013-04-14 18:21:00,83.1,48.0,29.39,ENE,66,5.0,10.0,29,0.00,,,0.00,weatherlink.com 1.10,2013-04-15 00:21:00,
2013-04-14 18:36:00,81.6,48.0,29.39,ENE,73,5.0,9.0,31,0.00,,,0.00,weatherlink.com 1.10,2013-04-15 00:36:00,
2013-04-14 18:51:00,79.6,48.0,29.39,ENE,63,5.0,12.0,33,0.00,,,0.00,weatherlink.com 1.10,2013-04-15 00:51:00,
2013-04-14 19:06:00,77.6,49.0,29.39,ENE,75,8.0,11.0,36,0.00,,,0.00,weatherlink.com 1.10,2013-04-15 01:06:00,
2013-04-14 19:21:00,76.1,49.0,29.39,ENE,57,2.0,10.0,38,0.00,,,0.00,weatherlink.com 1.10,2013-04-15 01:21:00,
2013-04-14 19:36:00,75.5,50.0,29.40,ENE,77,7.0,9.0,41,0.00,,,0.00,weatherlink.com 1.10,2013-04-15 01:36:00,
2013-04-14 19:51:00,74.1,49.0,29.40,ENE,64,3.0,8.0,42,0.00,,,0.00,weatherlink.com 1.10,2013-04-15 01:51:00,
2013-04-14 20:06:00,71.6,49.0,29.41,ENE,62,2.0,7.0,45,0.00,,,0.00,weatherlink.com 1.10,2013-04-15 02:06:00,
2013-04-14 20:21:00,70.3,49.0,29.42,ENE,67,3.0,7.0,47,0.00,,,0.00,weatherlink.com 1.10,2013-04-15 02:21:00,
2013-04-14 20:36:00,69.6,49.0,29.43,NE,43,1.0,7.0,48,0.00,,,0.00,weatherlink.com 1.10,2013-04-15 02:36:00,
2013-04-14 20:51:00,69.4,49.0,29.44,NNE,31,2.0,10.0,48,0.00,,,0.00,weatherlink.com 1.10,2013-04-15 02:51:00,
2013-04-14 21:06:00,69.4,50.0,29.45,NE,43,6.0,11.0,50,0.00,,,0.00,weatherlink.com 1.10,2013-04-15 03:06:00,
2013-04-14 21:22:00,68.4,50.0,29.46,North,354,8.0,9.0,52,0.00,,,0.00,weatherlink.com 1.10,2013-04-15 03:22:00,
2013-04-14 21:36:00,68.5,53.0,29.46,NNE,32,10.0,17.0,59,0.00,,,0.00,weatherlink.com 1.10,2013-04-15 03:36:00,
2013-04-14 21:51:00,68.1,55.0,29.47,NNE,29,12.0,17.0,64,0.00,,,0.00,weatherlink.com 1.10,2013-04-15 03:51:00,
2013-04-14 22:07:00,68.0,56.0,29.47,NE,43,11.0,18.0,65,0.00,,,0.00,weatherlink.com 1.10,2013-04-15 04:07:00,
2013-04-14 22:21:00,67.6,56.0,29.47,NNE,31,10.0,21.0,66,0.00,,,0.00,weatherlink.com 1.10,2013-04-15 04:21:00,
2013-04-14 22:51:00,66.0,55.0,29.48,NE,41,10.0,20.0,68,0.00,,,0.00,weatherlink.com 1.10,2013-04-15 04:51:00,
2013-04-14 23:07:00,64.9,54.0,29.48,NE,52,10.0,20.0,68,0.00,,,0.00,weatherlink.com 1.10,2013-04-15 05:07:00,
2013-04-14 23:21:00,64.2,53.0,29.48,NE,53,14.0,19.0,67,0.00,,,0.00,weatherlink.com 1.10,2013-04-15 05:21:00,
2013-04-14 23:37:00,63.4,53.0,29.49,NE,35,12.0,19.0,68,0.00,,,0.00,weatherlink.com 1.10,2013-04-15 05:37:00,
2013-04-14 23:52:00,62.7,52.0,29.50,NNE,27,5.0,18.0,67,0.00,,,0.00,weatherlink.com 1.10,2013-04-15 05:52:00,